Wind_Speed
17 17 17 17 18 14 11 10 9 8 7 6 5 4 4 3 2 2 3 3 3 4 3 3 4 4 5 5 5 5 5 5 5 5 5 5 5 6 7 6 6 6 6 6 5 5 5 5 4
17 15 17 18 16 11 10 10 9 7 7 6 5 4 4 4 3 2 3 3 3 3 3 4 4 5 5 5 5 5 5 4 3 3 4 4 5 6 7 6 5 5 5 5 5 4 4 4 3
16 16 19 16 12 10 9 9 10 8 8 7 6 5 4 4 4 3 3 3 3 4 4 4 4 4 5 5 5 5 5 4 4 3 3 4 4 5 6 5 5 4 4 3 3 3 3 3 3
15 19 19 14 10 10 10 10 10 9 7 7 7 6 5 5 5 5 5 4 4 5 5 4 4 4 5 5 4 5 5 4 4 4 3 3 3 4 4 4 4 4 3 3 2 2 2 2 3
16 19 17 11 10 10 10 10 9 9 8 8 8 6 6 6 6 5 5 5 5 5 5 4 4 5 4 4 4 4 3 3 3 3 3 2 3 3 3 4 4 3 3 3 2 2 3 2 3
17 18 13 9 9 9 10 9 9 8 9 8 8 7 6 7 7 7 6 6 5 5 5 4 4 5 4 4 3 3 2 2 3 3 2 2 2 2 2 3 4 4 3 3 2 3 4 4 3
15 15 11 9 9 9 9 8 8 9 8 9 8 7 7 8 8 7 7 6 6 5 4 5 5 5 4 4 3 3 2 2 2 2 2 2 2 2 1 2 3 3 3 3 2 3 4 5 6
14 14 10 8 8 9 9 8 9 9 9 10 9 8 7 7 7 7 7 7 7 7 6 5 5 5 4 4 3 3 2 2 2 2 2 2 2 1 1 2 2 2 3 4 5 4 4 5 4
13 11 9 8 8 9 9 9 9 10 10 11 10 9 8 7 7 7 7 7 7 7 7 6 5 4 4 4 4 3 2 2 2 2 2 1 1 1 1 1 1 1 2 4 6 7 6 5 4
9 7 8 8 9 10 10 10 10 10 11 11 11 10 9 8 8 7 8 7 7 7 8 7 6 5 4 4 3 3 2 2 1 1 1 0 1 1 1 1 1 0 1 3 4 6 5 4 3
5 6 7 7 8 10 10 9 10 10 11 12 11 11 10 10 9 8 8 7 7 7 7 7 7 5 4 4 4 3 2 2 2 2 1 1 1 1 2 2 2 2 2 1 0 4 4 3 2
3 4 5 6 8 9 9 9 9 9 10 11 11 11 11 10 10 9 8 8 8 8 7 7 7 5 4 4 4 3 2 2 2 2 2 1 2 2 3 3 3 3 4 5 5 4 3 2 1
2 4 5 6 7 9 9 10 9 9 11 12 11 11 11 11 11 10 9 8 9 9 8 7 7 6 5 4 4 4 3 2 2 2 2 2 2 3 3 3 3 3 4 4 4 3 2 0 0
3 4 5 7 7 9 10 10 10 9 10 10 11 10 10 11 11 11 10 9 9 9 8 8 7 6 5 4 4 4 4 4 3 3 3 3 3 2 2 3 3 2 1 2 2 2 2 2 1
4 4 5 7 7 8 9 10 10 10 10 9 10 10 10 10 11 10 10 9 9 8 8 7 7 6 5 4 4 4 5 4 4 4 3 3 3 2 2 2 2 1 1 1 2 2 2 2 2
4 4 5 5 7 9 9 9 10 10 10 9 9 9 10 9 9 10 10 9 9 9 8 6 7 7 5 4 4 5 4 4 4 4 4 3 3 3 2 3 3 2 2 2 2 2 3 3 3
1 1 3 4 6 7 7 7 9 11 10 9 8 9 9 9 9 9 9 9 9 9 8 8 8 7 5 4 4 4 4 3 3 3 3 3 3 3 3 3 3 3 3 3 3 3 3 3 3
1 2 2 2 3 4 5 5 7 10 10 10 9 9 9 8 8 8 8 9 9 9 9 8 8 7 5 4 4 3 3 4 4 3 3 3 3 4 4 4 4 4 4 4 4 4 4 4 4
3 4 4 4 3 4 5 5 5 8 10 9 9 9 9 8 7 7 8 8 8 8 8 7 7 7 5 4 4 3 3 4 4 4 3 3 3 4 4 4 5 5 5 5 5 5 5 5 5
6 5 5 4 4 4 6 5 5 6 8 10 10 9 8 8 7 7 8 7 7 7 7 7 7 7 6 5 4 4 3 4 3 3 3 4 4 4 4 5 5 6 6 6 7 6 6 6 5
7 5 7 6 5 4 6 9 6 7 8 9 9 9 7 7 7 7 7 8 7 7 7 6 6 6 5 5 5 5 4 4 4 4 4 5 5 5 6 6 6 6 6 7 7 7 6 6 6
8 7 8 6 5 6 5 7 7 7 9 10 9 9 7 6 7 7 7 7 7 7 7 6 6 6 6 5 6 5 5 4 4 4 4 5 5 6 7 7 6 7 7 7 7 7 7 6 6
10 8 7 5 5 6 6 8 9 5 7 9 10 9 8 7 7 7 7 7 7 6 6 6 6 6 6 6 5 5 4 4 4 4 5 5 5 6 7 7 7 7 7 7 7 7 7 7 7
11 8 6 6 6 8 8 9 10 7 8 9 10 10 9 8 8 8 8 7 6 6 6 6 6 6 5 6 5 5 5 5 4 5 5 5 6 6 7 7 8 8 8 7 7 8 7 7 7
12 10 8 9 10 11 9 9 10 10 10 10 9 10 10 9 9 9 8 8 7 6 6 6 7 7 6 5 5 5 5 5 5 5 5 5 6 7 7 8 9 9 9 9 8 8 7 7 7
14 12 11 11 11 11 10 9 10 12 12 13 11 10 10 10 9 9 9 8 7 7 7 7 7 7 6 5 5 5 5 5 6 6 6 6 7 8 8 9 10 10 9 9 8 8 8 8 8
17 15 13 13 12 11 11 11 12 14 14 13 13 12 11 10 9 9 9 8 8 8 8 7 7 7 7 7 6 6 6 6 6 6 6 7 8 8 9 10 10 10 10 9 8 9 9 9 9
18 16 14 14 14 12 13 14 14 14 12 13 13 14 13 12 10 10 9 8 8 9 9 9 8 8 8 7 7 7 6 6 6 7 7 8 8 10 11 11 11 10 10 9 10 9 10 10 10
17 16 17 17 16 14 13 14 14 14 14 13 14 15 14 14 13 12 11 9 9 10 10 10 10 9 9 9 8 8 8 7 7 8 8 9 9 10 11 11 11 11 11 11 11 10 10 11 11
18 19 19 18 18 17 16 17 15 15 16 15 15 16 15 15 15 14 13 12 11 10 11 11 11 11 10 10 10 10 9 9 9 9 9 10 10 11 11 11 11 11 12 11 11 12 12 12 12
Wind_Direction
70 68 66 58 54 46 38 29 26 39 43 46 50 51 56 73 80 92 107 121 147 145 137 132 129 123 121 119 127 127 122 122 123 131 142 142 140 149 160 157 153 153 153 151 150 159 160 154 154
75 69 62 52 49 37 33 29 27 37 40 42 48 47 46 58 66 83 111 121 131 132 135 130 125 122 118 114 119 127 127 127 127 125 139 143 140 144 152 157 155 156 158 160 163 170 169 170 171
77 69 61 50 42 32 29 26 28 32 39 38 42 42 47 51 58 74 97 117 121 124 126 127 122 114 115 114 117 120 125 127 130 124 133 146 144 148 152 153 153 153 157 159 159 172 176 184 199
76 68 60 46 33 32 29 27 29 31 39 36 40 45 50 52 60 72 80 99 111 119 121 122 120 110 112 118 119 113 115 121 126 122 130 142 151 161 160 164 162 159 161 163 154 171 175 189 198
73 63 56 42 30 34 28 30 31 28 27 36 45 48 60 55 64 67 72 84 92 105 109 116 110 113 115 123 127 123 119 124 125 124 130 141 157 173 189 188 174 173 176 178 180 186 189 191 195
70 63 53 39 28 26 26 28 32 28 26 26 35 47 53 58 60 65 73 76 77 86 93 95 103 106 107 117 121 129 126 122 129 130 138 148 158 171 187 188 178 176 176 184 196 201 207 206 201
71 69 59 33 25 23 25 25 29 30 31 28 32 45 54 56 53 58 64 66 65 73 85 84 96 100 103 100 102 121 129 120 113 116 126 130 142 155 158 185 199 203 203 199 197 206 213 220 212
71 61 54 31 27 25 29 31 29 33 33 30 31 38 47 54 50 52 55 58 60 61 64 72 87 89 88 91 95 105 113 110 105 106 114 118 107 119 135 161 183 212 225 224 219 216 224 218 223
65 56 46 35 22 27 35 41 32 33 37 37 35 37 42 45 46 49 54 53 54 56 57 58 72 80 81 80 80 81 86 95 94 92 102 131 119 130 150 176 203 227 235 236 231 229 226 225 233
52 51 44 34 27 29 36 40 36 33 37 41 42 40 39 40 44 50 52 51 56 58 56 59 62 71 78 76 73 70 70 77 82 66 52 106 150 140 111 81 51 2 280 266 245 230 225 224 222
44 40 39 36 34 34 36 37 34 38 37 42 40 41 40 44 48 47 51 50 55 56 53 62 59 62 66 63 64 63 58 53 56 50 39 51 108 124 107 98 74 70 56 42 125 199 205 211 207
63 50 39 36 38 35 33 40 35 34 39 41 43 43 46 48 48 48 54 55 55 54 55 60 60 61 60 55 51 55 55 60 54 52 54 62 87 81 86 80 65 72 72 75 78 119 151 178 211
62 56 43 39 38 37 33 34 31 33 32 36 40 41 46 51 52 53 56 61 59 57 53 54 53 54 53 54 53 47 40 47 62 67 62 69 81 88 79 75 70 65 73 74 74 82 99 74 337
65 59 47 32 27 33 29 33 27 26 25 33 37 41 45 48 51 53 54 54 53 49 45 48 47 47 49 45 43 34 32 48 72 83 73 73 76 80 70 69 64 54 57 73 58 41 43 38 21
53 44 42 26 25 25 20 26 17 12 17 28 37 42 44 46 51 54 50 47 45 41 39 44 41 41 43 41 39 41 45 54 64 73 77 73 72 68 62 54 36 23 11 22 8 3 358 350 346
36 24 31 22 16 11 18 20 4 4 8 16 27 37 42 43 42 44 45 41 39 36 30 37 36 37 41 42 44 52 50 47 53 63 67 71 62 47 45 41 34 22 4 350 340 340 340 337 339
79 324 342 360 13 2 6 18 358 3 6 12 16 16 24 32 34 39 38 36 34 31 28 31 31 31 38 43 46 45 40 34 35 50 60 55 44 33 24 16 18 10 1 341 325 331 335 330 327
190 230 254 311 347 358 344 1 358 358 10 7 10 8 13 18 21 26 29 29 26 23 21 23 21 25 36 42 41 35 30 25 23 28 35 33 25 10 1 355 354 345 339 332 324 332 332 324 317
205 233 248 280 313 346 334 345 351 352 359 359 2 3 5 9 10 14 16 18 19 18 17 22 22 27 33 33 29 21 14 13 19 26 24 19 12 5 359 350 343 336 328 323 323 328 323 317 317
222 237 258 274 295 328 335 332 338 350 350 350 354 1 1 0 5 7 10 8 8 7 11 17 21 25 29 29 24 15 13 12 17 21 20 18 10 1 351 345 341 335 328 328 326 328 325 321 320
229 246 250 255 282 312 325 326 328 337 338 345 348 352 357 357 2 4 4 5 5 6 9 16 26 24 27 25 18 15 21 26 29 31 28 20 14 8 354 349 348 344 337 336 339 336 329 331 327
230 238 248 255 271 285 289 296 305 318 329 336 337 340 348 351 355 356 358 355 358 4 10 11 19 17 22 23 22 25 28 29 28 28 24 20 18 360 351 349 346 342 336 339 342 339 340 333 327
224 231 245 259 263 281 287 280 285 296 321 327 331 332 338 343 344 348 350 348 347 352 360 3 10 12 12 16 20 25 27 28 26 24 20 20 16 7 356 351 349 344 341 341 343 348 347 343 340
221 230 245 250 260 269 271 280 290 295 302 312 323 327 328 332 334 338 340 341 340 341 347 356 359 0 2 6 16 20 19 18 18 15 13 13 6 358 353 353 347 341 341 340 342 344 340 338 338
220 225 238 246 258 268 268 268 278 292 295 298 304 318 324 325 325 327 329 330 331 332 337 345 350 351 350 352 358 5 5 6 4 3 1 358 354 349 347 345 345 342 341 341 342 341 335 333 334
222 223 234 242 251 264 273 272 280 288 291 292 294 304 311 317 317 319 319 320 321 321 324 332 341 344 339 332 336 341 346 348 352 354 354 352 346 343 343 344 347 347 344 342 341 337 333 332 330
225 225 232 248 256 256 260 265 276 275 281 288 294 295 301 306 308 314 316 313 313 314 315 319 328 332 331 322 316 322 329 334 340 346 347 346 342 340 343 342 342 345 341 338 341 340 336 336 333
228 228 228 236 248 253 261 264 262 266 271 282 290 292 295 296 303 307 307 305 305 307 307 311 316 321 323 320 310 307 311 320 328 333 334 334 334 335 338 339 339 338 336 337 342 338 335 330 330
227 228 230 233 235 248 260 267 271 267 269 272 277 285 291 290 290 294 294 298 296 297 300 303 308 312 316 314 310 302 299 302 308 318 322 323 325 328 330 334 332 333 331 329 331 330 330 330 327
232 230 229 236 240 241 249 260 264 269 274 272 268 271 276 279 282 284 286 289 289 288 290 294 298 303 305 305 302 301 296 298 302 305 309 313 319 322 324 326 327 328 328 326 325 324 321 322 322
Height
5882 5881 5881 5880 5879 5880 5879 5878 5876 5874 5874 5873 5872 5871 5870 5870 5871 5873 5870 5868 5869 5869 5869 5869 5870 5870 5871 5871 5871 5872 5872 5872 5872 5872 5873 5873 5874 5874 5875 5877 5877 5878 5879 5880 5880 5881 5881 5882 5882
5885 5884 5883 5882 5882 5882 5882 5880 5878 5876 5875 5874 5873 5872 5872 5871 5871 5871 5870 5870 5870 5870 5870 5870 5871 5871 5871 5872 5872 5873 5873 5873 5873 5873 5874 5874 5874 5874 5876 5877 5878 5879 5880 5880 5881 5881 5882 5883 5883
5887 5885 5884 5885 5886 5885 5884 5882 5880 5878 5877 5875 5874 5874 5873 5873 5872 5871 5871 5871 5871 5871 5871 5871 5872 5872 5872 5873 5873 5874 5874 5874 5874 5875 5875 5875 5875 5875 5876 5878 5879 5880 5880 5881 5881 5881 5882 5883 5884
5889 5887 5887 5889 5888 5887 5885 5884 5882 5880 5879 5877 5876 5875 5874 5874 5874 5873 5873 5872 5872 5872 5872 5873 5873 5873 5874 5874 5874 5875 5875 5875 5875 5876 5876 5876 5876 5876 5877 5878 5879 5880 5880 5881 5881 5881 5882 5883 5884
5889 5888 5890 5892 5890 5889 5887 5885 5884 5882 5880 5879 5878 5876 5876 5875 5875 5874 5874 5873 5873 5873 5873 5874 5874 5875 5875 5875 5876 5876 5876 5876 5876 5876 5876 5877 5877 5878 5878 5879 5879 5880 5881 5881 5882 5882 5882 5883 5883
5891 5890 5894 5895 5893 5891 5889 5887 5886 5884 5882 5881 5879 5878 5877 5877 5876 5876 5875 5875 5875 5874 5875 5875 5875 5875 5876 5876 5876 5877 5877 5877 5877 5877 5878 5878 5878 5878 5879 5879 5879 5880 5881 5882 5882 5881 5882 5883 5884
5895 5895 5897 5898 5895 5893 5891 5889 5888 5886 5884 5883 5881 5880 5879 5878 5878 5877 5877 5877 5876 5876 5876 5876 5876 5876 5877 5877 5877 5877 5878 5878 5878 5878 5879 5879 5879 5879 5879 5879 5880 5880 5881 5882 5882 5881 5881 5882 5883
5898 5899 5900 5899 5897 5895 5893 5891 5889 5888 5886 5885 5883 5882 5881 5880 5879 5879 5879 5878 5878 5878 5877 5877 5877 5877 5878 5878 5878 5878 5878 5879 5879 5879 5879 5880 5880 5880 5880 5880 5880 5881 5881 5882 5882 5881 5881 5881 5883
5901 5903 5902 5900 5899 5897 5895 5893 5891 5889 5888 5886 5885 5883 5882 5881 5881 5881 5880 5880 5880 5879 5879 5878 5878 5879 5879 5879 5879 5879 5879 5879 5880 5880 5880 5880 5880 5880 5880 5881 5881 5881 5881 5881 5880 5880 5880 5881 5883
5905 5905 5903 5902 5901 5898 5897 5895 5893 5892 5889 5888 5887 5886 5884 5883 5883 5882 5882 5882 5881 5881 5881 5880 5880 5880 5880 5880 5880 5880 5880 5880 5880 5881 5881 5881 5881 5881 5881 5881 5881 5880 5880 5879 5877 5877 5880 5882 5883
5906 5906 5905 5904 5902 5900 5898 5897 5895 5894 5892 5891 5889 5888 5886 5885 5884 5884 5883 5883 5883 5883 5882 5882 5881 5881 5881 5881 5881 5881 5881 5881 5881 5881 5881 5881 5881 5881 5881 5881 5881 5880 5880 5878 5875 5875 5879 5882 5883
5908 5907 5907 5905 5904 5902 5900 5898 5897 5896 5894 5893 5891 5890 5889 5887 5886 5885 5885 5885 5885 5884 5884 5883 5883 5883 5883 5883 5882 5882 5882 5882 5882 5882 5882 5882 5882 5882 5882 5882 5882 5881 5881 5880 5878 5878 5881 5883 5883
5909 5908 5907 5906 5905 5905 5903 5901 5899 5898 5896 5894 5893 5892 5891 5889 5888 5888 5887 5887 5887 5886 5886 5885 5885 5884 5884 5884 5883 5883 5883 5882 5882 5882 5883 5883 5883 5883 5883 5883 5883 5883 5883 5882 5882 5882 5882 5883 5883
5909 5908 5908 5907 5907 5906 5905 5903 5902 5899 5898 5897 5896 5894 5893 5891 5890 5890 5889 5889 5889 5888 5887 5887 5886 5886 5885 5885 5884 5884 5884 5883 5883 5883 5883 5884 5884 5884 5884 5884 5884 5884 5884 5884 5883 5883 5884 5884 5884
5909 5909 5909 5909 5909 5908 5907 5905 5904 5902 5900 5899 5898 5896 5895 5894 5893 5892 5892 5891 5890 5889 5889 5887 5887 5887 5886 5886 5885 5885 5885 5884 5884 5884 5884 5884 5884 5885 5885 5885 5885 5885 5884 5884 5884 5884 5884 5884 5884
5910 5911 5911 5912 5911 5910 5911 5908 5906 5904 5902 5901 5899 5897 5897 5896 5895 5894 5893 5892 5892 5891 5890 5888 5888 5888 5887 5887 5886 5886 5886 5886 5885 5885 5885 5885 5885 5885 5885 5885 5885 5885 5885 5884 5885 5885 5885 5884 5885
5912 5913 5913 5914 5913 5912 5911 5909 5907 5906 5904 5902 5901 5900 5899 5898 5897 5896 5895 5894 5893 5892 5892 5890 5890 5889 5888 5887 5887 5887 5887 5887 5886 5886 5886 5886 5886 5886 5886 5886 5886 5886 5885 5885 5885 5885 5885 5885 5884
5913 5915 5915 5915 5914 5913 5911 5910 5909 5907 5906 5904 5903 5901 5900 5899 5899 5898 5896 5895 5895 5894 5893 5891 5891 5890 5889 5888 5888 5888 5888 5887 5887 5887 5887 5887 5887 5887 5886 5886 5886 5886 5886 5886 5885 5885 5885 5884 5884
5914 5915 5915 5914 5913 5913 5912 5911 5909 5908 5907 5906 5904 5903 5902 5901 5900 5899 5898 5897 5896 5895 5894 5893 5892 5891 5890 5889 5889 5889 5888 5888 5888 5888 5887 5887 5887 5887 5887 5887 5886 5886 5886 5885 5885 5885 5884 5884 5883
5912 5913 5914 5914 5913 5913 5911 5911 5910 5908 5908 5907 5905 5904 5903 5902 5901 5900 5899 5898 5897 5896 5895 5894 5893 5892 5891 5890 5890 5889 5889 5888 5888 5888 5888 5888 5888 5888 5887 5887 5886 5886 5886 5885 5885 5884 5884 5883 5883
5911 5912 5913 5913 5912 5913 5912 5910 5910 5909 5908 5907 5906 5905 5904 5903 5902 5901 5900 5899 5898 5897 5896 5895 5894 5893 5892 5892 5891 5890 5889 5889 5889 5889 5889 5889 5889 5889 5888 5888 5887 5887 5886 5885 5884 5884 5884 5883 5882
5909 5911 5911 5911 5911 5911 5913 5912 5909 5909 5909 5908 5907 5905 5905 5904 5903 5902 5901 5900 5899 5898 5897 5896 5895 5894 5894 5893 5892 5891 5891 5891 5890 5890 5890 5890 5890 5890 5889 5888 5887 5886 5886 5885 5884 5883 5883 5882 5882
5908 5909 5909 5910 5910 5911 5912 5911 5909 5909 5909 5908 5907 5906 5905 5904 5903 5902 5901 5900 5899 5898 5898 5897 5896 5895 5895 5894 5893 5893 5892 5892 5892 5891 5891 5891 5891 5890 5889 5888 5887 5886 5886 5885 5884 5883 5882 5882 5881
5905 5907 5908 5908 5909 5911 5912 5911 5909 5908 5908 5908 5907 5906 5905 5904 5903 5902 5902 5901 5900 5899 5899 5898 5897 5896 5896 5895 5894 5894 5894 5893 5893 5892 5892 5892 5891 5890 5889 5888 5887 5886 5885 5884 5883 5882 5882 5881 5880
5903 5905 5907 5908 5909 5909 5910 5910 5909 5908 5908 5907 5906 5905 5905 5904 5903 5902 5901 5901 5900 5899 5899 5898 5898 5897 5896 5896 5896 5895 5895 5894 5894 5893 5893 5892 5891 5891 5889 5888 5887 5886 5884 5883 5883 5882 5881 5880 5879
5900 5903 5905 5907 5908 5908 5908 5907 5908 5907 5907 5906 5905 5904 5904 5903 5902 5902 5901 5900 5900 5899 5899 5898 5898 5897 5897 5896 5896 5896 5895 5895 5894 5894 5893 5892 5891 5890 5889 5888 5887 5885 5884 5883 5882 5881 5880 5879 5878
5897 5899 5903 5904 5905 5905 5906 5905 5905 5905 5905 5904 5903 5903 5903 5902 5902 5901 5900 5899 5899 5899 5898 5898 5898 5897 5896 5896 5896 5895 5895 5895 5894 5893 5893 5892 5891 5890 5889 5888 5887 5885 5883 5882 5881 5880 5879 5878 5877
5894 5896 5899 5900 5901 5902 5903 5903 5902 5901 5903 5903 5902 5901 5901 5901 5901 5900 5899 5899 5898 5898 5897 5897 5897 5896 5896 5895 5895 5894 5894 5894 5894 5893 5892 5892 5891 5890 5889 5887 5886 5884 5883 5881 5880 5879 5878 5877 5876
5890 5893 5894 5896 5898 5900 5901 5901 5898 5899 5901 5901 5901 5900 5899 5899 5899 5898 5897 5897 5897 5897 5896 5896 5896 5895 5895 5894 5894 5893 5893 5893 5892 5892 5891 5890 5890 5889 5888 5886 5885 5883 5882 5880 5879 5878 5877 5876 5874
5886 5888 5891 5893 5894 5895 5896 5899 5895 5895 5897 5897 5897 5897 5897 5897 5896 5896 5895 5895 5895 5895 5895 5894 5894 5894 5893 5893 5892 5892 5892 5891 5891 5890 5890 5889 5888 5887 5886 5885 5884 5882 5881 5879 5878 5876 5875 5874 5873